[[{"header":{"parameterUnit":"m.s-1","parameterCategory":1,"la1":30.2991,"la2":30.254,"lo1":-89.0895,"lo2":-89.0444,"dy":0.0017,"dx":0.0017,"nx":28,"ny":28,"refTime":"2025-01-13T03:00:00:Z","depth":0,"parameterNumber":2,"parameterNumberName":"U-component_of_WINDS"},"data":[0,0,0,0,0,0,0,0,0,0,0,0,0,0,0,0,0,0,0,0,0,0,0,0,0,0,0,0,0,0,0,0,0,0,0,0,0,0,0,0,0,0,0,0,0,0,0,0,0,0,0,0,0,0,0,0,0,0,-2.1598,-2.1598,0,-2.1604,-2.1604,-2.1604,-2.156,-2.1558,-2.1557,-2.1556,-2.1563,-2.1564,-2.1566,0,0,0,0,0,0,0,0,0,0,0,0,0,-2.1548,-2.1549,-2.1598,-2.1598,-2.1598,-2.1604,-2.1604,-2.1604,-2.156,-2.1558,-2.1557,-2.1555,-2.1563,-2.1564,-2.1566,0,0,0,0,0,0,0,0,0,0,0,0,0,-2.1564,-2.155,-2.1598,-2.1576,-2.1575,-2.1604,-2.1604,-2.1604,-2.156,-2.1558,-2.1556,-2.1555,-2.1562,-2.1564,-2.1566,-2.1616,0,0,-2.1572,-2.1573,0,0,0,0,0,0,0,0,-2.1563,-2.1565,-2.1579,-2.1578,-2.1576,-2.1579,-2.1589,-2.1608,-2.1561,-2.1566,-2.1556,-2.1554,-2.157,-2.1571,-2.1576,-2.1616,-2.1616,-2.1572,-2.1574,-2.1574,-2.1575,0,0,0,0,0,0,0,-2.1562,-2.1565,-2.16,-2.158,-2.1578,-2.1567,-2.1567,-2.1592,-2.1578,-2.1565,-2.1562,-2.1563,-2.1569,-2.1575,-2.1576,-2.1616,-2.1572,-2.1574,-2.1575,-2.1576,-2.1697,-2.1699,0,0,0,0,0,0,-2.1563,-2.1564,-2.16,-2.16,-2.1565,-2.1569,-2.1569,-2.158,-2.1578,-2.1576,-2.1565,-2.1561,-2.1572,-2.1574,-2.1576,-2.1635,-2.1574,-2.1576,-2.1577,-2.1695,-2.1698,-2.17,0,0,0,0,0,0,-2.1563,-2.1567,-2.1599,-2.1581,-2.1585,-2.1572,-2.1584,-2.1581,-2.1587,-2.1577,-2.1575,-2.1574,-2.1571,-2.1573,-2.1606,-2.1634,-2.1577,-2.1579,-2.1693,-2.1696,-2.1699,-2.1752,0,0,0,0,0,0,-2.1561,-2.1567,-2.1586,-2.1582,-2.1586,-2.1629,-2.1586,-2.1582,-2.159,-2.1586,-2.1585,-2.1583,-2.1569,-2.1603,-2.1608,-2.1636,-2.1581,-2.169,-2.1694,-2.1698,-2.1748,-2.1757,-2.1764,0,0,0,0,0,-2.156,-2.1601,-2.1587,-2.1591,-2.1609,-2.1631,-2.1633,-2.1616,-2.1593,-2.1612,-2.1606,-2.1583,-2.163,-2.1607,-2.1612,-2.1641,-2.1688,-2.1693,-2.1698,-2.1744,-2.1755,-2.1764,0,0,0,0,0,0,-2.1608,-2.16,-2.1585,-2.1625,-2.1629,-2.1624,-2.1647,-2.1628,-2.1639,-2.1634,-2.1613,-2.1613,-2.165,-2.1648,-2.1623,-2.1689,-2.1655,-2.1661,-2.1689,-2.1699,-2.1707,-2.1707,-2.1582,0,0,0,0,0,-2.1624,-2.1642,-2.1634,-2.1671,-2.1673,-2.166,-2.1669,-2.1656,-2.1659,-2.166,-2.1657,-2.1661,-2.1677,-2.1687,-2.1701,-2.1747,-2.1746,-2.1769,-2.1777,-2.1784,-2.179,-2.1814,-2.1824,-2.1715,-2.1715,-2.1715,0,0,-2.1656,-2.1653,-2.1667,-2.168,-2.1682,-2.1702,-2.1662,-2.1684,-2.1699,-2.1664,-2.1695,-2.1692,-2.1695,-2.1735,-2.1752,-2.1735,-2.182,-2.179,-2.1795,-2.1797,-2.182,-2.183,-2.184,-2.1718,-2.1717,-2.1717,0,0,-2.1725,-2.1725,-2.1756,-2.1758,-2.176,-2.1751,-2.1758,-2.1755,-2.1752,-2.1783,-2.1757,-2.1774,-2.1801,-2.1805,-2.181,-2.188,-2.186,-2.1885,-2.1928,-2.1952,-2.1961,-2.1969,-2.1994,-2.2004,-2.189,-2.1891,-2.1891,0,-2.1765,-2.1794,-2.1774,-2.1799,-2.1806,-2.1774,-2.1805,-2.1808,-2.1816,-2.1821,-2.1802,-2.1835,-2.1835,-2.1875,-2.1892,-2.1897,-2.1906,-2.1886,-2.1961,-2.1969,-2.1975,-2.2,-2.2009,-2.1894,-2.1893,-2.1893,-2.1893,0,-2.1843,-2.1864,-2.1888,-2.1896,-2.1905,-2.1933,-2.1918,-2.193,-2.1915,-2.1908,-2.194,-2.1938,-2.1952,-2.196,-2.1946,-2.1998,-2.1987,-2.1965,-2.1931,-2.1989,-2.2012,-2.2021,-2.1898,-2.1897,-2.1896,-2.1895,0,0,-2.1944,-2.194,-2.195,-2.1953,-2.1953,-2.1968,-2.1994,-2.2007,-2.2018,-2.2024,-2.2046,-2.2069,-2.2049,-2.2055,-2.2041,-2.2062,-2.2118,-2.2037,-2.2036,-2.2053,-2.2176,-2.2194,-2.2205,-2.2104,-2.2106,-2.2107,-2.2176,0,-2.2013,-2.2058,-2.204,-2.2087,-2.2105,-2.2075,-2.2098,-2.2101,-2.2095,-2.211,-2.2102,-2.212,-2.2091,-2.2094,-2.2113,-2.2107,-2.2143,-2.2102,-2.2125,-2.2126,-2.2127,-2.2217,-2.2236,-2.2302,-2.2185,-2.2186,-2.2187,0,-2.2099,-2.2108,-2.2156,-2.2153,-2.216,-2.2181,-2.2191,-2.2206,-2.2208,-2.2202,-2.2209,-2.219,-2.2216,-2.2181,-2.2216,-2.2189,-2.2197,-2.2195,-2.2197,-2.22,-2.2162,-2.2223,-2.2322,-2.2332,-2.2201,-2.22,-2.2199,0,-2.2169,-2.2193,-2.2225,-2.2229,-2.2225,-2.2241,-2.224,-2.2241,-2.225,-2.2258,-2.2264,-2.2275,-2.2282,-2.2292,-2.2277,-2.2252,-2.2315,-2.2278,-2.2311,-2.2312,-2.2327,-2.2327,-2.243,-2.233,-2.233,-2.233,-2.233,0,-2.2248,-2.2279,-2.2257,-2.2277,-2.2311,-2.229,-2.2324,-2.232,-2.2321,-2.2339,-2.2313,-2.2332,-2.231,-2.2326,-2.2315,-2.2346,-2.2349,-2.2345,-2.2342,-2.2349,-2.2349,-2.2355,-2.2351,-2.2333,-2.2332,-2.2331,-2.2331,0,-2.2333,-2.2319,-2.2353,-2.2346,-2.2346,-2.2371,-2.2366,-2.2384,-2.2375,-2.24,-2.2404,-2.2391,-2.2409,-2.2394,-2.2411,-2.2403,-2.2446,-2.2435,-2.2445,-2.2443,-2.2477,-2.2475,-2.2589,-2.2603,-2.2493,-2.2494,-2.2495,0,-2.2385,-2.2408,-2.2405,-2.2415,-2.2416,-2.2434,-2.2442,-2.2422,-2.2433,-2.2437,-2.2455,-2.247,-2.2481,-2.2511,-2.2503,-2.2516,-2.2507,-2.2546,-2.2509,-2.2514,-2.2509,-2.2508,-2.2511,-2.2554,-2.2555,-2.2556,-2.2557,0,-2.2479,-2.2471,-2.2485,-2.2496,-2.2507,-2.2515,-2.252,-2.253,-2.251,-2.2523,-2.254,-2.2549,-2.2567,-2.2582,-2.2593,-2.2592,-2.2572,-2.2568,-2.2577,-2.2584,-2.259,-2.2588,-2.2467,-2.2566,-2.2565,-2.2565,-2.2564,-2.2564,-2.255,-2.257,-2.257,-2.2586,-2.2588,-2.2594,-2.2611,-2.2604,-2.2618,-2.2631,-2.2618,-2.264,-2.2641,-2.2653,-2.2654,-2.2671,-2.2655,-2.2667,-2.2671,-2.2674,-2.268,-2.2586,-2.2673,-2.2672,-2.2672,-2.2672,-2.2672,0,-2.2644,-2.2643,-2.2657,-2.2666,-2.2679,-2.2657,-2.2662,-2.2674,-2.2694,-2.2696,-2.2708,-2.2728,-2.2743,-2.2736,-2.2749,-2.2764,-2.2755,-2.2768,-2.2768,-2.2768,-2.2693,-2.2685,-2.2775,-2.2775,-2.2775,-2.2775,-2.2775,-2.2775,-2.2695,-2.2726,-2.2718,-2.2751,-2.2749,-2.277,-2.2775,-2.278,-2.2782,-2.2806,-2.2818,-2.2813,-2.2812,-2.2825,-2.2838,-2.2835,-2.2842,-2.2859,-2.2853,-2.2783,-2.2773,-2.2764,-2.2756,-2.286,-2.286,-2.2927,-2.2928,-2.2928]},{"header":{"parameterUnit":"m.s-1","parameterCategory":1,"la1":30.2991,"la2":30.254,"lo1":-89.0895,"lo2":-89.0444,"dy":0.0017,"dx":0.0017,"nx":28,"ny":28,"refTime":"2025-01-13T03:00:00:Z","depth":0,"parameterNumber":3,"parameterNumberName":"V-component_of_WINDS"},"data":[0,0,0,0,0,0,0,0,0,0,0,0,0,0,0,0,0,0,0,0,0,0,0,0,0,0,0,0,0,0,0,0,0,0,0,0,0,0,0,0,0,0,0,0,0,0,0,0,0,0,0,0,0,0,0,0,0,0,-4.8393,-4.8393,0,-4.8428,-4.8429,-4.8429,-4.8381,-4.838,-4.8378,-4.8376,-4.8409,-4.8411,-4.8414,0,0,0,0,0,0,0,0,0,0,0,0,0,-4.8279,-4.8282,-4.8393,-4.8393,-4.8394,-4.8428,-4.8429,-4.8429,-4.8382,-4.838,-4.8377,-4.8376,-4.8408,-4.8411,-4.8414,0,0,0,0,0,0,0,0,0,0,0,0,0,-4.8323,-4.8283,-4.8393,-4.8374,-4.8373,-4.8428,-4.8429,-4.8429,-4.8382,-4.8379,-4.8377,-4.8375,-4.8407,-4.8411,-4.8414,-4.8489,0,0,-4.8426,-4.8427,0,0,0,0,0,0,0,0,-4.8321,-4.8327,-4.8376,-4.8376,-4.8374,-4.8398,-4.8401,-4.8449,-4.8383,-4.8378,-4.8376,-4.8373,-4.8407,-4.8411,-4.8423,-4.849,-4.8492,-4.8426,-4.8428,-4.843,-4.8431,0,0,0,0,0,0,0,-4.8318,-4.8326,-4.8407,-4.8377,-4.8376,-4.8363,-4.8366,-4.841,-4.8407,-4.8379,-4.8375,-4.838,-4.8406,-4.8419,-4.8423,-4.8492,-4.8426,-4.8429,-4.8432,-4.8433,-4.8623,-4.8625,0,0,0,0,0,0,-4.8318,-4.8323,-4.8406,-4.8408,-4.8341,-4.8367,-4.8371,-4.8393,-4.8406,-4.8406,-4.8382,-4.8378,-4.8414,-4.8419,-4.8424,-4.8513,-4.843,-4.8433,-4.8435,-4.862,-4.8623,-4.8626,0,0,0,0,0,0,-4.8315,-4.8325,-4.8404,-4.8365,-4.8374,-4.8372,-4.8397,-4.8395,-4.8408,-4.8409,-4.8408,-4.8397,-4.8413,-4.8419,-4.8473,-4.8513,-4.8435,-4.8438,-4.8616,-4.8621,-4.8625,-4.869,0,0,0,0,0,0,-4.8312,-4.8325,-4.8354,-4.8366,-4.8376,-4.8454,-4.8399,-4.8397,-4.8415,-4.841,-4.8422,-4.8422,-4.8411,-4.8468,-4.8477,-4.8517,-4.8441,-4.8613,-4.8618,-4.8623,-4.8685,-4.8696,-4.8706,0,0,0,0,0,-4.8308,-4.837,-4.8356,-4.8366,-4.8413,-4.8457,-4.8462,-4.845,-4.8419,-4.8447,-4.8448,-4.8422,-4.8507,-4.8474,-4.8484,-4.8525,-4.861,-4.8617,-4.8623,-4.868,-4.8694,-4.8706,0,0,0,0,0,0,-4.8361,-4.8371,-4.8355,-4.8423,-4.844,-4.8448,-4.8484,-4.8465,-4.8489,-4.8483,-4.8465,-4.8468,-4.8526,-4.8531,-4.8494,-4.8598,-4.8554,-4.8562,-4.8593,-4.8607,-4.8618,-4.8616,-4.8444,0,0,0,0,0,-4.8381,-4.8417,-4.8423,-4.8482,-4.8491,-4.8487,-4.8505,-4.8494,-4.851,-4.8516,-4.852,-4.8536,-4.8566,-4.8586,-4.8614,-4.8685,-4.8687,-4.8718,-4.8729,-4.8738,-4.8745,-4.8784,-4.8798,-4.8647,-4.8647,-4.8647,0,0,-4.8421,-4.8431,-4.8455,-4.8493,-4.8504,-4.8541,-4.8493,-4.8533,-4.856,-4.8522,-4.8574,-4.8578,-4.8594,-4.8657,-4.8685,-4.8662,-4.8787,-4.8746,-4.8753,-4.8756,-4.8792,-4.8806,-4.8819,-4.8651,-4.8651,-4.865,0,0,-4.8515,-4.8526,-4.8577,-4.859,-4.8608,-4.8605,-4.8617,-4.8629,-4.8631,-4.8683,-4.8655,-4.8686,-4.8739,-4.8752,-4.8765,-4.8864,-4.8841,-4.8873,-4.893,-4.8967,-4.8979,-4.899,-4.9026,-4.9039,-4.8881,-4.8881,-4.8881,0,-4.8563,-4.8619,-4.8605,-4.8649,-4.8666,-4.8634,-4.8685,-4.8698,-4.8724,-4.8736,-4.8711,-4.8777,-4.8785,-4.8851,-4.8875,-4.8887,-4.89,-4.8872,-4.8979,-4.8989,-4.8999,-4.9033,-4.9047,-4.8885,-4.8884,-4.8884,-4.8884,0,-4.8677,-4.8716,-4.8755,-4.8783,-4.8805,-4.8852,-4.8844,-4.8867,-4.8854,-4.8853,-4.8907,-4.8916,-4.8945,-4.896,-4.8946,-4.9024,-4.901,-4.8982,-4.8937,-4.9017,-4.9049,-4.9062,-4.889,-4.8889,-4.8888,-4.8887,0,0,-4.8805,-4.8826,-4.8841,-4.8854,-4.8872,-4.8901,-4.8946,-4.8977,-4.8997,-4.9016,-4.9053,-4.9099,-4.9074,-4.9089,-4.9077,-4.9109,-4.9188,-4.9078,-4.9078,-4.9099,-4.9275,-4.9297,-4.9312,-4.9173,-4.9175,-4.9177,-4.9274,0,-4.89,-4.898,-4.8969,-4.9046,-4.9082,-4.9052,-4.9091,-4.9106,-4.9106,-4.9136,-4.9135,-4.9168,-4.9132,-4.9141,-4.9172,-4.9172,-4.9224,-4.9165,-4.9207,-4.9209,-4.9206,-4.9329,-4.9352,-4.9443,-4.9286,-4.9288,-4.929,0,-4.9021,-4.9047,-4.9128,-4.9141,-4.9156,-4.9192,-4.9219,-4.9248,-4.9264,-4.9261,-4.9279,-4.9261,-4.9305,-4.9259,-4.932,-4.928,-4.9296,-4.9299,-4.9302,-4.9306,-4.9255,-4.9338,-4.9472,-4.9486,-4.9309,-4.9308,-4.9306,0,-4.9108,-4.9162,-4.9218,-4.923,-4.9246,-4.9273,-4.928,-4.9294,-4.9313,-4.9336,-4.9349,-4.9376,-4.9391,-4.9412,-4.9402,-4.9369,-4.9465,-4.9417,-4.9464,-4.9465,-4.9487,-4.9486,-4.9627,-4.9495,-4.9495,-4.9495,-4.9494,0,-4.9215,-4.9266,-4.9258,-4.9292,-4.9348,-4.9334,-4.9389,-4.9393,-4.9406,-4.944,-4.9414,-4.9446,-4.943,-4.9461,-4.9452,-4.9504,-4.9511,-4.951,-4.9507,-4.9513,-4.9514,-4.9524,-4.9518,-4.9498,-4.9498,-4.9497,-4.9496,0,-4.9323,-4.9319,-4.9378,-4.9389,-4.9393,-4.9434,-4.9444,-4.9475,-4.9473,-4.9517,-4.9526,-4.9523,-4.9557,-4.9549,-4.9586,-4.9581,-4.9647,-4.9635,-4.9642,-4.964,-4.9687,-4.9684,-4.9841,-4.9862,-4.9716,-4.9718,-4.9719,0,-4.9392,-4.9431,-4.9447,-4.9469,-4.948,-4.9515,-4.9535,-4.9522,-4.9544,-4.9565,-4.9594,-4.9627,-4.9653,-4.971,-4.971,-4.9738,-4.9728,-4.9781,-4.9732,-4.9737,-4.973,-4.9729,-4.9733,-4.9792,-4.9793,-4.9795,-4.9796,0,-4.9516,-4.9513,-4.9544,-4.9574,-4.9599,-4.9622,-4.9642,-4.9661,-4.965,-4.9675,-4.9711,-4.9731,-4.977,-4.9803,-4.983,-4.9836,-4.9815,-4.9811,-4.9824,-4.9831,-4.9834,-4.9834,-4.967,-4.9808,-4.9807,-4.9806,-4.9805,-4.9805,-4.9608,-4.9641,-4.9659,-4.9694,-4.9708,-4.9728,-4.9759,-4.9761,-4.9792,-4.9824,-4.9814,-4.9855,-4.987,-4.9903,-4.9913,-4.9944,-4.9924,-4.9942,-4.9947,-4.9952,-4.9958,-4.9828,-4.9949,-4.9948,-4.9948,-4.9948,-4.9948,0,-4.9732,-4.9742,-4.9774,-4.9804,-4.9832,-4.981,-4.9831,-4.9856,-4.9893,-4.9909,-4.9936,-4.9977,-5.0009,-5.0012,-5.0042,-5.0066,-5.0057,-5.0075,-5.0073,-5.0075,-4.9974,-4.9961,-5.0082,-5.0082,-5.0082,-5.0082,-5.0082,-5.0082,-4.98,-4.9856,-4.9854,-4.9917,-4.9926,-4.9968,-4.9982,-5.0,-5.0013,-5.0061,-5.0088,-5.009,-5.0101,-5.0131,-5.016,-5.0159,-5.0172,-5.0194,-5.019,-5.0096,-5.0082,-5.007,-5.0057,-5.0196,-5.0196,-5.0289,-5.029,-5.029]}]]